Location: Peterborough
(44.3091°N, 78.3197°W)
Time: 04:48:27
(UTC-04:00)

Tiros 1 despin weight - Pass Details

Date: 31 March 2023
Orbit: 586 x 632 km, 48.2° (Epoch: 08 June)

Event Time Altitude Azimuth Distance (km) Brightness Sun altitude
Rises 02:25:58 0° 287° (WNW) 2,831 - -39.2°
Reaches altitude 10° 02:28:38 10° 272° (W) 1,934 - -39.1°
Maximum altitude 02:32:03 22° 221° (SW) 1,329 - -38.8°
Drops below altitude 10° 02:35:29 10° 171° (S) 1,949 - -38.6°
Sets 02:38:11 0° 156° (SSE) 2,859 - -38.3°
